Find OPS 9325

NORAD ID: 2652 Int'l Des: 1967-003 Owner: AFSSD Country: US operational
MEOCIRCULAR

Live Position

Loading 3D Globe...

About OPS 9325

Description loading...

Upcoming Passes

Passes for default location (London). Set your location on the main map for personalized predictions.

Altitude History

Loading altitude history...

Two-Line Element Set

1 2652U 67003E 26105.91031428 -.00000102 00000-0 00000+0 0 9996
2 2652 8.1453 46.3182 0037069 78.0811 282.3058 1.07943157139448
Epoch: Apr 15, 2026 • Age: 44 hours

Current Status

Altitude 33733.7 km
Velocity 3.15 km/s
Sub-Earth Point -0.02°S, 74.33°W
Type other

Most Searched